sat.trackr.live / text

‹ back to catalog

STARLINK-31762

NORAD 59614 · 2024-080P

PAYLOAD ACTIVE UNKNOWN

§ Identity

Operator
Country
US
Launch date
2024-04-28
Launch site
AFETR
Launch vehicle
Mass (kg)
RCS (m²)

Purposes: comms

External: N2YO · Heavens-Above · Gunter

§ Orbital elements

Epoch: 2026-09-21T08:13:01.971552Z

Period
94.27 min
Inclination
43.0039°
Eccentricity
0.0001072
Mean motion
15.27568373 rev/d
Perigee alt
482.3 km
Apogee alt
483.8 km
Semi-major
6,861.2 km
B*
-1.1667e-5
RAAN
13.0989°
Arg perigee
272.2637°
Mean anomaly
87.8091°
Rev number
13,445

§ Raw data

STARLINK-317621 59614U 24080P   26264.34238393 -.00000583  00000+0 -11667-4 0  99962 59614  43.0039  13.0989 0001072 272.2637  87.8091 15.27568373134452

JSON: /api/v1/satellites/59614 · /tle

For live sub-satellite position, see the globe view (requires WebGL).

§ Visibility from observer

Set your observer location to see the next 7 days of passes ≥ 10°. The values pass through the URL so the page stays shareable.

No JS? Fill the form by hand. The geolocation button needs JavaScript.